Stündliche Wetter Kyslychuvata

Heute, 28 Januar, Donnerstag

Zeit Temperatur Niederschläge Wind Luftdruck Luftfeuchtigkeit
00:00 +5°C° 0 mm 7 m/S 741 mmHg 79%
01:00 +5°C° 0 mm 6 m/S 740 mmHg 80%
02:00 +5°C° 0 mm 6 m/S 740 mmHg 81%
03:00 +5°C° 0 mm 6 m/S 740 mmHg 83%
04:00 +5°C° 0 mm 6 m/S 740 mmHg 85%
05:00 +5°C° 0 mm 6 m/S 740 mmHg 87%
06:00 +4°C° 0 mm 6 m/S 740 mmHg 86%
07:00 +3°C° 0 mm 6 m/S 740 mmHg 86%
08:00 +3°C° 0 mm 6 m/S 740 mmHg 84%
09:00 +3°C° 0 mm 6 m/S 740 mmHg 81%
10:00 +3°C° 0 mm 6 m/S 740 mmHg 78%
11:00 +4°C° 0 mm 6 m/S 741 mmHg 74%
12:00 +4°C° 0 mm 7 m/S 741 mmHg 72%
13:00 +2°C° 0 mm 8 m/S 741 mmHg 70%
14:00 +2°C° 0 mm 8 m/S 741 mmHg 67%
15:00 +1°C° 0 mm 8 m/S 742 mmHg 68%
16:00 0°C° 0 mm 9 m/S 742 mmHg 69%
17:00 0°C° 0 mm 9 m/S 743 mmHg 70%
18:00 -1°C° 0 mm 9 m/S 743 mmHg 73%
19:00 -3°C° 0 mm 9 m/S 743 mmHg 76%
20:00 -3°C° 0 mm 9 m/S 743 mmHg 78%
21:00 -3°C° 0.2 mm 9 m/S 743 mmHg 82%
22:00 -4°C° 0.2 mm 10 m/S 743 mmHg 86%
23:00 -4°C° 0.2 mm 10 m/S 743 mmHg 90%

Morgen, 29 Januar, Freitag

Zeit Temperatur Niederschläge Wind Luftdruck Luftfeuchtigkeit
00:00 -4°C° 0.1 mm 10 m/S 744 mmHg 89%
01:00 -5°C° 0.1 mm 10 m/S 744 mmHg 88%
02:00 -5°C° 0.1 mm 10 m/S 744 mmHg 87%
03:00 -5°C° 0.1 mm 10 m/S 744 mmHg 85%
04:00 -5°C° 0.1 mm 9 m/S 745 mmHg 84%
05:00 -5°C° 0.1 mm 9 m/S 745 mmHg 82%
06:00 -5°C° 0 mm 8 m/S 746 mmHg 81%
07:00 -5°C° 0 mm 8 m/S 746 mmHg 80%
08:00 -4°C° 0 mm 7 m/S 747 mmHg 80%
09:00 -3°C° 0 mm 7 m/S 747 mmHg 73%
10:00 -2°C° 0 mm 8 m/S 747 mmHg 66%
11:00 -1°C° 0 mm 8 m/S 747 mmHg 58%
12:00 -1°C° 0 mm 8 m/S 747 mmHg 60%
13:00 0°C° 0 mm 8 m/S 746 mmHg 62%
14:00 0°C° 0 mm 8 m/S 746 mmHg 64%
15:00 0°C° 0 mm 7 m/S 745 mmHg 66%
16:00 -1°C° 0 mm 7 m/S 745 mmHg 69%
17:00 -1°C° 0 mm 6 m/S 745 mmHg 71%
18:00 -1°C° 0 mm 6 m/S 745 mmHg 73%
19:00 -1°C° 0 mm 6 m/S 745 mmHg 74%
20:00 -1°C° 0 mm 6 m/S 745 mmHg 75%
21:00 -1°C° 0 mm 6 m/S 745 mmHg 79%
22:00 -2°C° 0 mm 6 m/S 745 mmHg 82%
23:00 -2°C° 0 mm 6 m/S 745 mmHg 86%

übermorgen, 30 Januar, Samstag

Zeit Temperatur Niederschläge Wind Luftdruck Luftfeuchtigkeit
00:00 -2°C° 0 mm 5 m/S 745 mmHg 88%
01:00 -2°C° 0 mm 4 m/S 745 mmHg 89%
02:00 -2°C° 0 mm 3 m/S 746 mmHg 91%
03:00 -2°C° 0 mm 3 m/S 745 mmHg 91%
04:00 -2°C° 0 mm 2 m/S 745 mmHg 92%
05:00 0°C° 0 mm 1 m/S 745 mmHg 92%
06:00 -2°C° 0 mm 2 m/S 745 mmHg 91%
07:00 -1°C° 0 mm 2 m/S 745 mmHg 91%
08:00 -1°C° 0 mm 3 m/S 745 mmHg 90%
09:00 +1°C° 0 mm 3 m/S 745 mmHg 88%
10:00 +1°C° 0 mm 4 m/S 745 mmHg 86%
11:00 +3°C° 0 mm 5 m/S 745 mmHg 84%
12:00 +3°C° 0 mm 5 m/S 744 mmHg 86%
13:00 +3°C° 0 mm 5 m/S 744 mmHg 88%
14:00 +3°C° 0 mm 5 m/S 743 mmHg 90%
15:00 +3°C° 0.1 mm 6 m/S 743 mmHg 88%
16:00 +3°C° 0.1 mm 6 m/S 743 mmHg 86%
17:00 +3°C° 0.1 mm 6 m/S 743 mmHg 83%
18:00 +3°C° 0.1 mm 6 m/S 743 mmHg 82%
19:00 +3°C° 0.1 mm 7 m/S 743 mmHg 80%
20:00 +3°C° 0.1 mm 7 m/S 742 mmHg 79%
21:00 +3°C° 0.7 mm 7 m/S 742 mmHg 83%
22:00 +3°C° 0.7 mm 7 m/S 742 mmHg 87%
23:00 +3°C° 0.7 mm 7 m/S 742 mmHg 91%

31 Januar, Sonntag

Zeit Temperatur Niederschläge Wind Luftdruck Luftfeuchtigkeit
00:00 +3°C° 1 mm 7 m/S 742 mmHg 91%
01:00 +3°C° 1 mm 7 m/S 742 mmHg 92%
02:00 +2°C° 1 mm 7 m/S 742 mmHg 92%
03:00 +3°C° 0 mm 7 m/S 741 mmHg 91%
04:00 +3°C° 0 mm 7 m/S 741 mmHg 90%
05:00 +3°C° 0 mm 7 m/S 741 mmHg 89%
06:00 +2°C° 0 mm 7 m/S 742 mmHg 89%
07:00 +2°C° 0 mm 6 m/S 742 mmHg 90%
08:00 +2°C° 0 mm 6 m/S 743 mmHg 91%
09:00 +2°C° 0 mm 6 m/S 744 mmHg 85%
10:00 +2°C° 0 mm 6 m/S 744 mmHg 79%
11:00 +3°C° 0 mm 5 m/S 745 mmHg 74%
12:00 +3°C° 0 mm 5 m/S 746 mmHg 72%
13:00 +4°C° 0 mm 4 m/S 746 mmHg 69%
14:00 +3°C° 0 mm 4 m/S 747 mmHg 67%
15:00 +3°C° 0 mm 3 m/S 747 mmHg 67%
16:00 +3°C° 0 mm 2 m/S 748 mmHg 68%
17:00 +3°C° 0 mm 1 m/S 748 mmHg 68%
18:00 +3°C° 0 mm 1 m/S 748 mmHg 68%
19:00 +2°C° 0 mm 2 m/S 749 mmHg 69%
20:00 +2°C° 0 mm 2 m/S 749 mmHg 69%
21:00 +1°C° 0 mm 3 m/S 749 mmHg 70%
22:00 +2°C° 0 mm 3 m/S 749 mmHg 72%
23:00 +1°C° 0 mm 4 m/S 749 mmHg 73%

1 Februar, Montag

Zeit Temperatur Niederschläge Wind Luftdruck Luftfeuchtigkeit
00:00 +1°C° 0 mm 4 m/S 749 mmHg 79%
01:00 +3°C° 0 mm 4 m/S 748 mmHg 85%
02:00 +3°C° 0 mm 4 m/S 748 mmHg 90%
03:00 +2°C° 0 mm 5 m/S 747 mmHg 91%
04:00 +2°C° 0 mm 5 m/S 746 mmHg 92%
05:00 +3°C° 0 mm 6 m/S 746 mmHg 93%
06:00 +3°C° 0 mm 6 m/S 745 mmHg 92%
07:00 +4°C° 0 mm 7 m/S 744 mmHg 91%
08:00 +4°C° 0 mm 8 m/S 744 mmHg 89%
09:00 +5°C° 0.6 mm 8 m/S 743 mmHg 87%
10:00 +5°C° 0.6 mm 9 m/S 743 mmHg 86%
11:00 +6°C° 0.6 mm 10 m/S 743 mmHg 84%
12:00 +6°C° 0.4 mm 10 m/S 742 mmHg 85%
13:00 +7°C° 0.4 mm 10 m/S 742 mmHg 87%
14:00 +7°C° 0.4 mm 10 m/S 742 mmHg 89%
15:00 +7°C° 0 mm 9 m/S 743 mmHg 86%
16:00 +6°C° 0 mm 8 m/S 743 mmHg 82%
17:00 +6°C° 0 mm 8 m/S 743 mmHg 79%
18:00 +4°C° 0 mm 7 m/S 744 mmHg 81%
19:00 +3°C° 0 mm 6 m/S 745 mmHg 82%
20:00 +1°C° 0 mm 6 m/S 746 mmHg 83%
21:00 +1°C° 0 mm 5 m/S 747 mmHg 82%
22:00 +1°C° 0 mm 5 m/S 748 mmHg 81%
23:00 +1°C° 0 mm 5 m/S 749 mmHg 80%

2 Februar, Dienstag

Zeit Temperatur Niederschläge Wind Luftdruck Luftfeuchtigkeit
00:00 0°C° 0 mm 4 m/S 750 mmHg 81%
01:00 -1°C° 0 mm 4 m/S 750 mmHg 82%
02:00 -1°C° 0 mm 3 m/S 751 mmHg 82%
03:00 -1°C° 0 mm 3 m/S 751 mmHg 82%
04:00 -1°C° 0 mm 3 m/S 752 mmHg 81%
05:00 -1°C° 0 mm 2 m/S 752 mmHg 81%
06:00 -1°C° 0 mm 2 m/S 753 mmHg 80%
07:00 -2°C° 0 mm 2 m/S 754 mmHg 80%
08:00 -2°C° 0 mm 2 m/S 754 mmHg 79%
09:00 -1°C° 0 mm 2 m/S 755 mmHg 75%
10:00 +1°C° 0 mm 2 m/S 755 mmHg 71%
11:00 +3°C° 0 mm 1 m/S 755 mmHg 67%
12:00 +3°C° 0 mm 1 m/S 755 mmHg 65%
13:00 +3°C° 0 mm 0 m/S 755 mmHg 63%
14:00 +4°C° 0 mm 0 m/S 755 mmHg 60%
15:00 +3°C° 0 mm 0 m/S 755 mmHg 63%
16:00 +3°C° 0 mm 0 m/S 755 mmHg 66%
17:00 +2°C° 0 mm 0 m/S 756 mmHg 69%
18:00 +3°C° 0 mm 1 m/S 756 mmHg 70%
19:00 +3°C° 0 mm 1 m/S 756 mmHg 72%
20:00 +2°C° 0 mm 1 m/S 756 mmHg 74%
21:00 +2°C° 0 mm 1 m/S 756 mmHg 74%
22:00 +1°C° 0 mm 0 m/S 756 mmHg 75%
23:00 0°C° 0 mm 0 m/S 756 mmHg 76%
Mehr zeigen

Wir brauchen deine Erlaubnis

Meteoprog und unser Service Anbieter werden persönliche Daten aufbewahren, so wie Cookies, Geräte Bezeichnung oder ähnliche Technologien von deinem Gerät und Prozess, so wie Persönliche Daten Inhalte und Werbungen, genauso wie social Media und den Verkehr zu analysieren.

  • Aufbewahrung und/oder Zugang zu deiner Geräte Informationen.

    Cookies, Geräte Bezeichnung oder andere Informationen, können aufbewahrt oder Zugang zu deinem Gerät erhalten, für den Grund, der oben angegeben wird.

  • Personalisierte Werbung und Inhalte, Messungen, Einblick in das Publikum und Produkt Entwicklung.

    Werbungen und Inhalte können personalisiert werden, basierend auf ein Profil. Mehr Daten können besser personalisierte Werbungen und Inhalte hinzufügen. Werbung und Inhalte können gezeigt und gemessen werden. Einblicke über das Publikum, welche die Werbung gesehen haben und den Inhalt, können abgeleitet werden. So wie Daten können genutzt werden, um es zu verbessern oder die Benutzer Erfahrung zu verbessern das System und die Software.

Wenn du “Ich stimme zu” klickst, erlaubst du uns, die Cookies zu benutzen die Geräte Bezeichnung, den Web oder ähnliche Technologien zu benutzen. Deine Settings, können in deinem Gerät bei deinem Browser geändert werden.

Für den bestimmten Zweck, berechtigten Interessen beruhen darauf, mehr als auf den Inhalt. Du kannst mehr darüber in unseren Privaten und Cookie Politik lesen.